Location: Caracas
(10.5033°N, 66.8422°W)
Time: 07:22:41
(UTC-04:00)

Vanguard 1 Rocket - All Passes

Search period start: 24 November 2017 00:00
Search period end: 04 December 2017 00:00
Orbit: 655 x 4222 km, 34.3° (Epoch: 23 November)

Date Brightness Start Highest point End Pass type
(mag) Time Alt. Az. Time Alt. Az. Time Alt. Az.
24 Nov - 01:26:31 10° WNW 01:49:50 38° N 02:06:18 10° ENE visible
24 Nov - 04:03:42 10° NW 04:24:54 59° NNE 04:35:54 10° ESE visible
24 Nov - 06:38:56 10° WNW 06:52:51 47° SW 07:00:12 10° SSE daylight
24 Nov - 16:43:18 10° S 16:51:31 24° SE 17:04:14 10° E daylight
24 Nov - 19:05:14 10° SW 19:18:54 83° SE 19:43:43 10° ENE visible
24 Nov - 21:33:31 10° W 21:52:39 51° NNW 22:18:06 10° NE visible
25 Nov - 00:09:09 10° WNW 00:32:15 37° N 00:52:02 10° ENE visible
25 Nov - 02:47:11 10° NW 03:10:17 47° NNE 03:23:52 10° E visible
25 Nov - 05:22:40 10° WNW 05:41:17 81° SW 05:50:21 10° SE visible
25 Nov - 08:01:17 10° W 08:06:23 14° SW 08:10:18 10° SSW daylight
25 Nov - 17:54:49 10° SSW 18:05:58 56° SE 18:26:54 10° ENE visible
25 Nov - 20:20:22 10° WSW 20:36:34 64° NNW 21:02:34 10° NE visible
25 Nov - 22:52:43 10° WNW 23:14:11 40° N 23:36:59 10° NE visible
26 Nov - 01:30:19 10° NW 01:54:12 41° NNE 02:10:43 10° ENE visible
26 Nov - 04:06:27 10° NW 04:28:27 72° NNE 04:39:38 10° ESE visible
26 Nov - 06:42:43 10° WNW 06:55:36 35° SW 07:02:55 10° SSE daylight
26 Nov - 16:45:29 10° SSW 16:54:10 32° SE 17:08:57 10° ENE daylight
26 Nov - 19:08:33 10° WSW 19:21:55 83° NW 19:46:35 10° NE visible
26 Nov - 21:37:44 10° W 21:56:36 46° NNW 22:21:24 10° NE visible
27 Nov - 00:13:28 10° WNW 00:36:48 38° N 00:56:25 10° ENE visible
27 Nov - 02:50:09 10° NW 03:14:10 55° NNE 03:27:55 10° E visible
27 Nov - 05:25:44 10° WNW 05:44:14 64° SW 05:53:32 10° SE visible
27 Nov - 15:38:31 10° SSE 15:42:55 14° SE 15:48:31 10° ESE daylight
27 Nov - 17:57:48 10° SW 18:08:43 70° SE 18:30:06 10° ENE visible
27 Nov - 20:24:15 10° W 20:40:11 55° NNW 21:05:29 10° NE visible
27 Nov - 22:57:13 10° WNW 23:18:40 38° N 23:41:03 10° ENE visible
28 Nov - 01:33:46 10° NW 01:58:24 46° NNE 02:15:04 10° E visible
28 Nov - 04:09:14 10° NW 04:31:43 87° NE 04:43:08 10° SE visible
28 Nov - 06:47:03 10° W 06:58:17 25° SW 07:05:18 10° S daylight
28 Nov - 16:48:02 10° SSW 16:56:48 42° SE 17:12:57 10° ENE daylight
28 Nov - 19:12:04 10° WSW 19:25:11 70° NNW 19:49:22 10° NE visible
28 Nov - 21:42:07 10° WNW 22:00:49 41° NNW 22:24:58 10° NE visible
29 Nov - 00:17:29 10° NW 00:41:16 40° N 01:00:53 10° ENE visible
29 Nov - 02:53:00 10° NW 03:17:47 66° NNE 03:31:46 10° ESE visible
29 Nov - 05:29:05 10° WNW 05:47:01 49° SW 05:56:28 10° SSE visible
29 Nov - 15:39:43 10° S 15:45:42 20° SE 15:54:35 10° E daylight
29 Nov - 18:01:00 10° SW 18:11:40 86° SE 18:33:04 10° NE visible
29 Nov - 20:28:21 10° W 20:44:03 48° NNW 21:08:34 10° NE visible
29 Nov - 23:01:37 10° WNW 23:23:14 38° N 23:45:23 10° ENE visible
30 Nov - 01:36:58 10° NW 02:02:21 52° NNE 02:19:14 10° E visible
30 Nov - 04:12:08 10° WNW 04:34:45 78° SW 04:46:26 10° SE visible
30 Nov - 06:52:15 10° W 07:01:01 18° SW 07:07:10 10° S daylight
30 Nov - 16:50:52 10° SSW 16:59:31 55° SE 17:16:30 10° ENE daylight
30 Nov - 19:15:50 10° WSW 19:28:44 59° NNW 19:52:10 10° NE visible
30 Nov - 21:46:35 10° WNW 22:05:14 38° N 22:28:51 10° ENE visible
01 Dec - 00:21:11 10° NW 00:45:34 44° NNE 01:05:20 10° E visible
01 Dec - 02:55:48 10° NW 03:21:08 78° NNE 03:35:22 10° ESE visible
01 Dec - 05:32:50 10° WNW 05:49:39 38° SW 05:59:09 10° SSE visible
01 Dec - 15:41:49 10° S 15:48:26 28° SE 15:59:22 10° ENE daylight
01 Dec - 18:04:25 10° WSW 18:14:52 78° NNW 18:35:54 10° NE visible
01 Dec - 20:32:37 10° W 20:48:10 42° NNW 21:11:53 10° NE visible
01 Dec - 23:05:47 10° NW 23:27:46 39° N 23:49:52 10° ENE visible
02 Dec - 01:39:59 10° NW 02:06:03 60° NNE 02:23:12 10° ESE visible
02 Dec - 04:15:12 10° WNW 04:37:33 63° SW 04:49:29 10° SE visible
02 Dec - 06:59:13 10° WSW 07:03:52 12° SW 07:07:44 10° SSW daylight
02 Dec - 14:37:35 10° SE 14:37:41 10° SE 14:37:47 10° SE daylight
02 Dec - 16:53:56 10° SW 17:02:26 72° SE 17:19:43 10° ENE daylight
02 Dec - 19:19:49 10° W 19:32:31 49° NNW 19:55:03 10° NE visible
02 Dec - 21:51:00 10° WNW 22:09:45 37° N 22:33:03 10° ENE visible
03 Dec - 00:24:36 10° NW 00:49:37 49° NNE 01:09:38 10° E visible
03 Dec - 02:58:38 10° NW 03:24:12 89° SW 03:38:46 10° SE visible
03 Dec - 05:37:08 10° W 05:52:16 29° SW 06:01:33 10° S visible
03 Dec - 15:44:23 10° SSW 15:51:10 39° SE 16:03:25 10° ENE daylight
03 Dec - 18:08:05 10° WSW 18:18:20 63° NNW 18:38:39 10° NE visible
03 Dec - 20:37:02 10° WNW 20:52:29 38° N 21:15:31 10° NE visible
03 Dec - 23:09:40 10° NW 23:32:08 41° NNE 23:54:25 10° E visible
